Terminal Aerodrome Forecast
Issued by NWS Norman, OK

Home | Current Version | Previous Version | Text Only | Print | Product List | Glossary On
Versions: 1 2 3 4 5 6 7 8 9 10 11 12 13 14 15 16 17 18 19 20 21 22 23 24 25 26 27 28 29 30 31
000
FTUS44 KOUN 011518 AAA
TAFSPS
TAF AMD
KSPS 011518Z 0115/0212 06006KT 3SM BR OVC006
      TEMPO 0115/0116 2SM -FZDZ BR
     FM011900 03006KT 5SM BR OVC007
     FM020600 02011KT 4SM BR OVC004 PROB30 0208/0212 3SM -FZRA BR=

USA.gov is the U.S. government's official web portal to all federal, state and local government web resources and services.